Flag for Canada Weather past 2 weeks in Brampton, Ontario, Canada

Now
72 °F

Passing clouds.


Feels Like: 77 °F
Forecast: 62 / 83 °F
Wind: 5 mph from South

Location: Toronto Pearson International Airport

Current Time: Jul 31, 2015 at 9:36:07 AM

Latest Report: Jul 31, 2015 at 9:00 AM


Visibility: 15 mi

Pressure: 29.86 "Hg

Humidity: 53%

Dew point: 54 °F

Location of BramptonLocation

Historic Weather in Brampton — Graph

°F

Brampton temperature yesterday

Maximum temperature yesterday: 86 °F (at 3:00 PM)
Minimum temperature yesterday: 68 °F (at 6:00 AM)
Average temperature yesterday: 79 °F

Past Weeks' High & Low Weather Summary

 TemperatureHumidityPressure
High91 °F (Jul 28, 3:00 PM)100% (Jul 18, 6:52 AM)30.14 "Hg (Jul 18, 6:52 AM)
Low59 °F (Jul 22, 5:00 AM)30% (Jul 24, 12:00 PM)29.61 "Hg (Jul 21, 3:03 AM)
Average75 °F59%29.88 "Hg
* Reported Jul 16 8:00 AM — Jul 31 8:00 AM, Brampton, Weather by CustomWeather, © 2015

Note: Actual official high and low records may vary slightly from our data, if they occured in-between our weather recording intervals... More about our weather records

Advertising

Brampton weather history for previous 24 hours

 ConditionsComfort  
Time TempWeatherWind HumidityBarometerVisibility
8:00 AM
Fri, Jul 31
68 °FPassing clouds.3 mph64%29.88 "Hg15 mi
7:00 AM64 °FPassing clouds.5 mph73%29.88 "Hg15 mi
6:00 AM63 °FPassing clouds.6 mph73%29.88 "Hg15 mi
5:00 AM64 °FClear.6 mph68%29.88 "Hg15 mi
4:00 AM64 °FClear.6 mph68%29.87 "Hg15 mi
3:00 AM66 °FClear.8 mph64%29.87 "Hg15 mi
2:00 AM68 °FClear.7 mph64%29.87 "Hg15 mi
1:00 AM70 °FClear.12 mph60%29.87 "Hg15 mi
12:00 AM72 °FPassing clouds.9 mph61%29.86 "Hg15 mi
11:00 PM
Thu, Jul 30
73 °FPassing clouds.9 mph53%29.85 "Hg15 mi
10:00 PM75 °FPassing clouds.10 mph50%29.84 "Hg15 mi
9:00 PM77 °FPassing clouds.12 mph47%29.83 "Hg15 mi
8:00 PM79 °FPassing clouds.20 mph42%29.83 "Hg15 mi
7:00 PM82 °FScattered clouds.18 mph40%29.83 "Hg15 mi
6:00 PM84 °FPassing clouds.22 mph35%29.82 "Hg15 mi
5:00 PM82 °FPartly sunny.22 mph37%29.81 "Hg15 mi
4:00 PM86 °FScattered clouds.21 mph33%29.81 "Hg15 mi
3:00 PM86 °FPartly sunny.20 mph35%29.81 "Hg15 mi
2:00 PM84 °FPartly sunny.20 mph37%29.83 "Hg15 mi
1:00 PM84 °FPartly sunny.20 mph37%29.83 "Hg15 mi
12:00 PM82 °FPartly sunny.23 mph40%29.84 "Hg15 mi
11:00 AM82 °FPassing clouds.18 mph42%29.84 "Hg15 mi
10:00 AM81 °FPassing clouds.14 mph48%29.83 "Hg15 mi
9:00 AM77 °FPassing clouds.10 mph54%29.84 "Hg15 mi
Weather by CustomWeather, © 2015

See weather overviewHow to use our weather pages